Regional Weather Roundup
Issued by NWS

Home | Current Version | Previous Version | Text Only | Print | Product List | Glossary Off
Versions: 1 2 3 4 5 6 7 8 9 10 11 12 13 14 15 16 17 18 19 20 21 22 23 24 25 26 27 28 29 30 31 32 33 34 35 36 37 38 39 40 41 42 43 44 45 46 47 48 49 50

199
ASUS43 KMKX 181210
RWRWI

WISCONSIN REGIONAL WEATHER ROUNDUP
NATIONAL WEATHER SERVICE MILWAUKEE/SULLIVAN WI
600 AM CST SAT NOV 18 2017

NOTE: "FAIR" INDICATES FEW OR NO CLOUDS BELOW 12,000 FEET WITH NO
SIGNIFICANT WEATHER AND/OR OBSTRUCTIONS TO VISIBILITY.

WIZ001-002-006>008-014>016-023>028-181300-
NORTHWEST WISCONSIN

CITY           SKY/WX    TMP DP  RH WIND       PRES   REMARKS
SUPERIOR ARPT  MOCLDY    29  26  88 NW7       29.77R WCI  22
6HR MIN TEMP:  29; 6HR MAX TEMP:  33;

ASHLAND        CLOUDY    34  31  88 NW6       29.72R WCI  29
6HR MIN TEMP:  33; 6HR MAX TEMP:  34;

HAYWARD        CLOUDY    33  30  88 N6        29.69F WCI  28
6HR MIN TEMP:  33; 6HR MAX TEMP:  34;

SIREN          CLOUDY    32  31  96 NW8       29.74S WCI  25
6HR MIN TEMP:  32; 6HR MAX TEMP:  33;

CUMBERLAND     CLOUDY    32  30  93 N9        29.69S WCI  24
RICE LAKE      CLOUDY    33  32  94 NW5       29.71S WCI  29
6HR MIN TEMP:  33; 6HR MAX TEMP:  34;

CHETEK         CLOUDY    33  32  95 N5        29.69S WCI  29
6HR MIN TEMP:  33; 6HR MAX TEMP:  33;

LADYSMITH      CLOUDY    33  33  98 N7        29.68F WCI  27
EAU CLAIRE     CLOUDY    35  32  88 N7        29.68S WCI  29
6HR MIN TEMP:  35; 6HR MAX TEMP:  35;

MENOMONIE      CLOUDY    35  33  91 NW8       29.69S WCI  28
6HR MIN TEMP:  35; 6HR MAX TEMP:  36;

NEW RICHMOND   CLOUDY    33  32  98 N12       29.72R FOG     WCI  24
6HR MIN TEMP:  33; 6HR MAX TEMP:  34;

OSCEOLA        CLOUDY    33  33 100 N7        29.76S WCI  27
6HR MIN TEMP:  33; 6HR MAX TEMP:  35;

$$

WIZ003>005-009-010-017-018-181300-
NORTH CENTRAL WISCONSIN

CITY           SKY/WX    TMP DP  RH WIND       PRES   REMARKS
MANITOWISH WTR CLOUDY    32  32 100 N3        29.63F FOG
6HR MIN TEMP:  32; 6HR MAX TEMP:  32;

ARBOR VITAE    CLOUDY    34  33  96 N9        29.61F FOG     WCI  27
6HR MIN TEMP:  34; 6HR MAX TEMP:  34;

WOODRUFF       CLOUDY    34  33  96 N9        29.61F FOG     WCI  27
6HR MIN TEMP:  34; 6HR MAX TEMP:  34;

RHINELANDER    CLOUDY    33  33 100 VRB6      29.62R FOG     WCI  28
6HR MIN TEMP:  32; 6HR MAX TEMP:  33;

EAGLE RIVER    MIX PCPN  32  32 100 N7        29.62R WCI  26
6HR MIN TEMP:  32; 6HR MAX TEMP:  33;

LAND O LAKES   CLOUDY    33  33 100 N8        29.64R FOG     WCI  25
6HR MIN TEMP:  33; 6HR MAX TEMP:  33;

PHILLIPS       CLOUDY    32  32 100 N5        29.65S WCI  27
6HR MIN TEMP:  32; 6HR MAX TEMP:  32;

TOMAHAWK       CLOUDY    32  32 100 NW6       29.62S FOG     WCI  26
6HR MIN TEMP:  32; 6HR MAX TEMP:  32;

MEDFORD        CLOUDY    32  32 100 N8        29.63S FOG     WCI  25
6HR MIN TEMP:  32; 6HR MAX TEMP:  32;

MERRILL        CLOUDY    34  34 100 N6        29.63S FOG     WCI  29
6HR MIN TEMP:  33; 6HR MAX TEMP:  34;

$$

WIZ029-030-035-036-043>047-181300-
CENTRAL WISCONSIN

CITY           SKY/WX    TMP DP  RH WIND       PRES   REMARKS
WAUSAU         CLOUDY    34  33  96 N8        29.61R WCI  27
6HR MIN TEMP:  34; 6HR MAX TEMP:  34;

MOSINEE        CLOUDY    34  34 100 N10       29.62R WCI  26
MARSHFIELD     CLOUDY    35  31  85 N7        29.62R WCI  29
6HR MIN TEMP:  34; 6HR MAX TEMP:  35;

STEVENS POINT  CLOUDY    33  33 100 N6        29.62R WCI  27
6HR MIN TEMP:  32; 6HR MAX TEMP:  33;

WAUPACA        CLOUDY    36  35  94 N7        29.60R WCI  31
6HR MIN TEMP:  36; 6HR MAX TEMP:  38;

WAUTOMA        CLOUDY    35  33  92 N7        29.61R WCI  29
6HR MIN TEMP:  35; 6HR MAX TEMP:  37;

WISC RAPIDS    CLOUDY    35  33  92 N13       29.63R WCI  26
6HR MIN TEMP:  35; 6HR MAX TEMP:  36;

CAMP DOUGLAS   CLOUDY    35  35  99 N8        29.63R WCI  29
6HR MIN TEMP:  35; 6HR MAX TEMP:  37; 6HR PCP: TRACE;

$$

WIZ011>013-019>022-031-037>040-048>050-181300-
NORTHEAST WISCONSIN

CITY           SKY/WX    TMP DP  RH WIND       PRES   REMARKS
ANTIGO         CLOUDY    32  32 100 N8        29.60S FOG     WCI  25
6HR MIN TEMP:  32; 6HR MAX TEMP:  32;

SHAWANO        CLOUDY    37  34  91 N6        29.61R WCI  32
6HR MIN TEMP:  35; 6HR MAX TEMP:  37;

OCONTO         CLOUDY    35  33  91 N6        29.59F WCI  30
6HR MIN TEMP:  34; 6HR MAX TEMP:  36;

STURGEON BAY   CLOUDY    37  35  92 N15       29.57F WCI  28
6HR MIN TEMP:  37; 6HR MAX TEMP:  38;

GREEN BAY      CLOUDY    36  35  96 N15       29.58R WCI  27
6HR MIN TEMP:  36; 6HR MAX TEMP:  38;

MANITOWOC      CLOUDY    37  35  92 N10       29.55F WCI  30
6HR MIN TEMP:  36; 6HR MAX TEMP:  38; 6HR PCP: TRACE;

APPLETON       CLOUDY    34  34 100 N13       29.57R WCI  25
CLINTONVILLE   CLOUDY    36  34  93 N6        29.60R WCI  31
OSHKOSH        CLOUDY    36  33  89 N13       29.57R WCI  27
6HR MIN TEMP:  36; 6HR MAX TEMP:  37; 6HR PCP:  0.01;

$$

WIZ032>034-041-042-053>061-181300-
SOUTHWEST WISCONSIN

CITY           SKY/WX    TMP DP  RH WIND       PRES   REMARKS
LA CROSSE      CLOUDY    38  35  89 N13       29.66R WCI  30
6HR MIN TEMP:  38; 6HR MAX TEMP:  39;

SPARTA         CLOUDY    34  33  96 N9G16     29.65R WCI  26
6HR MIN TEMP:  34; 6HR MAX TEMP:  35; 6HR PCP:  0.01;

VIROQUA        CLOUDY    35  35 100 N10       29.60F WCI  27
6HR MIN TEMP:  35; 6HR MAX TEMP:  36;

BOSCOBEL       LGT RAIN  39  35  86 N8        29.63R WCI  33
6HR MIN TEMP:  39; 6HR MAX TEMP:  40; 6HR PCP:  0.02;

PRAIRIE DU CHI LGT RAIN  38  36  92 NW7       29.63R WCI  32
6HR MIN TEMP:  38; 6HR MAX TEMP:  39; 6HR PCP:  0.03;

PLATTEVILLE    CLOUDY    38  38 100 N14       29.58R WCI  29
6HR MIN TEMP:  38; 6HR MAX TEMP:  40;

$$

WIZ056-057-062-063-064-067-068-181300-
SOUTH CENTRAL WISCONSIN

CITY           SKY/WX    TMP DP  RH WIND       PRES   REMARKS
REEDSBURG      LGT RAIN  35  35 100 N10       29.59S WCI  27
6HR MIN TEMP:  35; 6HR MAX TEMP:  37; 6HR PCP:  0.05;

BARABOO/DELLS  LGT RAIN  35  34  96 N10       29.59R WCI  27
6HR MIN TEMP:  35; 6HR MAX TEMP:  37; 6HR PCP:  0.01;

LONE ROCK      LGT RAIN  38  36  92 N10       29.60R FOG     WCI  31
6HR MIN TEMP:  38; 6HR MAX TEMP:  40; 6HR PCP: TRACE;

MINERAL POINT  LGT RAIN  37  37 100 N9        29.58R WCI  31
MADISON        CLOUDY    36  35  96 N9        29.56R WCI  29
6HR MIN TEMP:  36; 6HR MAX TEMP:  38;

MIDDLETON      CLOUDY    38  37  97 N8        29.57R WCI  32
6HR MIN TEMP:  38; 6HR MAX TEMP:  39;

WATERTOWN      CLOUDY    36  36 100 N7        29.53S WCI  30
6HR MIN TEMP:  36; 6HR MAX TEMP:  38;

MONROE         LGT RAIN  36  36 100 N13       29.51S WCI  27
JANESVILLE     CLOUDY    37  37 100 NE13G20   29.47F WCI  29
$$

WIZ051-052-058>065-066-070>072-181300-
SOUTHEAST WISCONSIN

CITY           SKY/WX    TMP DP  RH WIND       PRES   REMARKS
MILWAUKEE      CLOUDY    40  36  86 N14       29.53F WCI  32
6HR MIN TEMP:  40; 6HR MAX TEMP:  43; 6HR PCP: TRACE;

WAUKESHA       CLOUDY    36  34  93 N6        29.54S WCI  31
MILWAUKEE/TIMM CLOUDY    36  32  87 N7        29.55S WCI  30
RACINE         CLOUDY    40  38  93 N9        29.54F WCI  34
6HR MIN TEMP:  40; 6HR MAX TEMP:  43;

BURLINGTON     CLOUDY    40  40 100 N10       29.50F WCI  34
6HR MIN TEMP:  40; 6HR MAX TEMP:  43;

KENOSHA        CLOUDY    41  37  86 NE10      29.50F
6HR MIN TEMP:  41; 6HR MAX TEMP:  44; 6HR PCP:  0.01;

FOND DU LAC    CLOUDY    37  33  85 N12       29.55R WCI  29
6HR MIN TEMP:  37; 6HR MAX TEMP:  39; 6HR PCP:  0.02;

SHEBOYGAN      CLOUDY    37  36  96 N7        29.54R WCI  32
6HR MIN TEMP:  37; 6HR MAX TEMP:  39; 6HR PCP:  0.01;

WEST BEND      CLOUDY    36  34  93 N5        29.53S WCI  32
JUNEAU         CLOUDY    35  33  94 N9        29.55F WCI  28
6HR MIN TEMP:  35; 6HR MAX TEMP:  37;

$$

LSZ147-162-181300-
LAKE SUPERIOR

STATION/POSITION TIME  TEMP    WIND        PRES    WAVE
                       AIR SEA DIR/SP/G            HT/PER
                 (UTC) (F)     (DEG/KT/KT) (MB)    (FT/S)
DEVILS ISLAND    1200   35     340/ 14/ 16 1007.0R
SAXON HARBOR     1140   38     340/ 12/ 14 1005.4S
$$

LMZ867-665-643>646-181300-
LAKE MICHIGAN

STATION/POSITION TIME  TEMP    WIND        PRES    WAVE
                       AIR SEA DIR/SP/G            HT/PER
                 (UTC) (F)     (DEG/KT/KT) (MB)    (FT/S)
N MID LAKE BUOY  1150



USA.gov is the U.S. government's official web portal to all federal, state and local government web resources and services.